Regional Weather Roundup
Issued by NWS Northern Indiana

Home | Current Version | Previous Version | Graphics & Text | Print | Product List | Glossary On
Versions: 1 2 3 4 5 6 7 8 9 10 11 12 13 14 15 16 17 18 19 20 21 22 23 24 25 26 27 28 29 30 31 32 33 34 35 36 37 38 39 40 41 42 43 44 45 46 47 48 49 50
000
ASUS43 KIWX 250900
RWRIWX

KIWX WEATHER ROUNDUP
NATIONAL WEATHER SERVICE NORTHERN INDIANA
500 AM EDT SUN SEP 25 2016

NOTE: "FAIR" INDICATES FEW OR NO CLOUDS BELOW 12,000 FEET WITH NO
SIGNIFICANT WEATHER AND/OR OBSTRUCTIONS TO VISIBILITY.

* THESE STATIONS ARE NOT UNDER NWS QUALITY CONTROL. THEY ALSO MAY NOT
  REPORT WEATHER SUCH AS PRECIPITATION OR FOG.

INZ001>027-251000-
NORTHERN INDIANA

CITY           SKY/WX    TMP DP  RH WIND       PRES   REMARKS
SOUTH BEND     MOCLDY    60  54  80 SE10      30.16S
GOSHEN         CLEAR     59  51  75 SE7       30.16F
ANGOLA*          N/A     55  45  67 SE6       30.18S
FORT WAYNE     CLEAR     57  50  77 E6        30.17F
PERU/GRISSOM   CLEAR     60  54  80 E7        30.13F

$$
INZ028>050-251000-
CENTRAL INDIANA

CITY           SKY/WX    TMP DP  RH WIND       PRES   REMARKS
LAFAYETTE      CLEAR     63  60  90 E10       30.12S
MUNCIE*        CLEAR     59  55  87 E3        30.15F
INDIANAPOLIS   CLEAR     67  60  78 E6        30.11S

$$
MIZ043>046-050>051-056>058-064>065-071>073-077>080-251000-
SOUTHWEST LOWER MICHIGAN

CITY           SKY/WX    TMP DP  RH WIND       PRES   REMARKS
BATTLE CREEK   CLEAR     56  52  86 CALM      30.19S
BENTON HARBOR  MOCLDY    61  54  77 SE9       30.14F
COLDWATER*     CLEAR     55  52  92 E5        30.18S
HILLSDALE*     CLEAR     52  46  82 E3        30.18F FOG
HOLLAND        CLEAR     55  52  89 E6        30.16F
GRAND RAPIDS   CLEAR     52  48  86 E5        30.18F
KALAMAZOO      CLEAR     56  52  86 CALM      30.18S
STURGIS*       CLEAR     58  52  80 SE6       30.17S
THREE RIVERS*  FAIR      57  54  91 CALM      30.18S

$$
OHZ001>008-015>018-024>025-251000-
NORTHWEST OHIO

CITY           SKY/WX    TMP DP  RH WIND       PRES   REMARKS
DEFIANCE       CLEAR     55  50  83 CALM      30.18F
FINDLAY        CLEAR     56  45  66 E8        30.17F
TOLEDO EXPRESS CLEAR     52  52 100 CALM      30.19F
TOLEDO METCALF CLEAR     54  49  83 E6        30.20F
LIMA           CLEAR     53  51  93 E5        30.17F

$$
AND FOR LAKE MICHIGAN COASTAL AND OPEN LAKE BUOY OBSERVATIONS

STATION/POSITION TEMP    WIND        PRES    VSBY  WAVE
                 AIR SEA DIR/SP/G                  HT/PER
                 (F)     (DEG/KT/KT) (MB)    (MI)  (FT/S)
CALUMET HARBOR    67     130/  8/ 12 1019.4S
MICHIGAN CITY     63     110/ 13/ 17   N/A
BURNS HARBOR      65     150/ 13/ 24 1020.3F
SAINT JOSEPH      62      CALM  /  6 1021.3
SOUTH LAKE BUOY   68 72  130/ 17/ 19 1019.7          3/ 5
4 MI NW BRIDGMAN  63 68  120/ 12/ 16 1020.5F         1/ 2
MICHIGAN CITY     64 68  150/ 10/ 14   N/A           1/ 2

$$
&&




USA.gov is the U.S. government's official web portal to all federal, state and local government web resources and services.